Wind_Speed
5 5 5 5 5 4 3 4 4 4 5 6 6 7 10 15 22 22 21 16 11 7 3 3 6 8 9 10 12 14 14 19 22 16 17 12 10 10 7 7 7 6 9 12 20
7 7 6 6 6 5 5 5 5 5 6 6 4 5 6 8 12 20 24 22 16 11 8 5 8 9 9 12 11 12 15 19 20 16 16 12 15 16 16 13 10 11 12 10 18
9 9 9 8 7 6 6 6 6 6 6 5 3 3 4 5 6 9 23 25 21 16 13 10 10 11 9 12 7 17 17 17 15 20 15 10 12 21 21 19 15 14 13 14 13
12 11 11 10 9 8 7 7 7 6 7 5 3 3 3 2 0 1 12 23 23 21 18 15 13 15 12 10 11 17 14 17 12 13 15 11 12 17 21 20 21 15 14 12 9
15 14 13 12 11 10 10 9 8 8 8 4 4 4 2 1 4 3 8 20 24 25 22 19 16 16 15 11 13 14 12 14 12 10 11 8 10 12 12 18 23 20 9 8 8
17 17 16 15 13 12 11 11 10 9 8 6 5 5 4 3 7 7 7 12 19 22 23 21 19 16 14 14 12 15 10 9 6 4 9 5 5 11 9 12 16 14 5 6 6
21 20 18 17 16 14 13 13 12 11 10 8 7 6 4 7 6 8 5 10 13 16 20 20 18 16 17 15 13 12 9 5 4 9 8 7 6 10 8 9 13 12 6 2 7
23 22 21 20 18 16 15 15 14 13 12 11 9 7 2 8 3 5 9 9 10 9 11 15 15 16 18 19 17 14 10 9 8 12 8 10 11 9 7 11 14 13 9 4 5
24 24 23 23 21 19 17 18 15 14 14 13 10 8 4 5 8 11 11 11 12 12 12 14 12 13 17 18 17 15 13 12 15 13 18 11 12 8 6 16 17 16 11 7 6
24 24 24 24 23 21 20 21 18 18 15 14 13 10 8 7 9 9 9 15 17 13 14 15 13 14 14 15 14 11 11 16 18 15 21 19 18 16 14 15 15 13 11 8 6
23 23 24 24 24 22 20 22 21 22 20 17 13 9 6 8 9 8 9 16 20 16 16 16 17 16 17 15 12 12 15 20 18 17 26 16 16 19 16 9 13 17 10 7 6
24 23 22 23 23 21 20 22 22 22 23 21 20 17 14 13 13 12 13 15 19 18 16 20 22 18 16 12 11 12 15 20 21 18 22 12 21 17 14 11 10 14 8 8 8
22 22 22 21 21 20 20 21 20 19 21 22 21 20 16 19 18 15 17 14 15 15 19 21 16 9 15 14 15 15 14 20 19 19 15 12 15 16 13 7 7 15 11 14 15
22 21 21 20 20 19 19 19 18 15 13 21 21 20 22 24 28 22 19 18 18 17 12 14 16 15 10 11 11 13 8 15 15 15 12 14 6 10 6 6 10 16 14 15 18
20 20 19 20 20 18 19 17 15 10 4 8 17 25 28 27 24 27 26 25 24 21 14 13 6 6 11 9 10 13 11 8 14 12 13 11 5 4 6 7 10 14 14 12 10
20 20 18 20 19 20 17 16 13 7 9 6 8 8 17 22 23 25 22 23 29 22 20 23 20 17 13 11 12 14 14 9 9 10 4 8 5 5 3 9 11 16 14 16 8
20 20 18 19 19 21 18 17 11 9 9 8 8 4 12 14 18 21 23 22 27 23 27 23 21 18 16 17 12 14 10 4 2 1 7 7 5 7 7 9 15 14 15 14 15
19 19 18 16 21 21 20 21 13 10 23 8 10 3 5 8 15 13 19 15 18 21 19 18 19 19 17 17 13 9 7 4 4 3 5 6 5 8 9 11 11 12 13 10 16
19 18 16 18 22 22 24 28 20 11 8 27 20 11 4 3 8 9 15 20 24 25 23 10 23 15 13 15 15 12 11 13 8 3 2 6 8 12 8 13 10 10 15 7 14
16 17 16 18 20 21 26 34 27 22 11 7 8 4 2 2 1 5 7 7 19 22 21 21 21 20 18 9 10 12 11 10 9 4 4 4 4 12 10 11 10 9 7 7 11
15 12 14 14 16 21 30 34 35 21 21 11 7 5 4 7 3 1 8 5 5 11 20 24 25 25 15 6 6 7 6 8 5 4 7 3 6 8 9 7 11 9 4 5 6
11 10 10 11 18 24 30 31 27 25 27 26 22 16 10 6 7 3 4 4 2 3 14 18 17 27 27 24 24 21 21 13 12 6 5 5 12 12 6 4 11 13 11 10 9
9 10 10 11 10 12 14 16 20 23 26 29 22 23 12 8 6 7 6 2 1 4 2 7 12 21 18 19 20 20 13 7 6 7 9 5 5 4 6 7 9 15 15 14 14
9 7 12 14 10 8 8 12 15 14 15 21 24 14 16 12 11 7 10 6 5 4 5 1 4 6 11 11 6 13 13 7 5 5 5 11 7 6 6 4 10 10 19 20 16
12 11 14 12 13 11 10 10 12 10 9 8 16 20 20 14 13 13 14 13 13 9 9 5 3 2 4 6 10 14 12 8 7 5 6 4 5 5 5 5 10 14 20 23 21
14 14 16 9 7 7 9 10 12 12 10 2 11 19 20 17 12 13 12 10 9 7 7 9 5 5 4 5 6 7 7 7 6 8 6 3 3 3 5 9 12 19 24 26 25
13 15 16 17 7 5 2 3 4 4 4 4 4 11 12 13 14 14 14 14 12 11 8 8 6 7 7 6 5 7 10 9 9 4 1 3 2 5 9 12 14 14 22 27 25
Wind_Direction
245 236 227 229 222 210 225 241 244 252 250 250 248 252 251 242 238 227 212 216 231 236 254 338 326 337 2 1 355 350 2 356 349 332 313 280 283 304 284 297 300 353 15 37 44
249 246 241 234 230 216 219 235 243 246 247 250 250 253 261 260 248 232 214 213 220 234 245 274 293 317 345 355 357 355 347 350 351 357 335 300 268 287 297 313 312 316 346 5 48
254 251 247 245 241 237 225 232 241 249 241 231 247 266 271 283 271 242 219 210 216 231 242 258 271 293 320 343 341 331 333 341 348 339 327 317 268 265 280 290 323 327 312 329 30
254 253 253 251 250 250 243 243 242 247 251 241 257 268 276 279 144 294 209 211 217 227 239 250 255 281 295 310 309 310 327 342 338 332 329 323 301 261 272 287 292 302 305 318 1
252 254 253 254 256 255 256 254 250 248 256 256 263 280 283 215 181 192 209 208 217 226 235 242 244 273 282 291 291 300 312 335 331 327 341 298 278 274 280 279 282 285 340 359 342
251 251 253 255 256 257 258 260 258 256 259 262 260 275 280 245 214 213 220 222 226 230 235 241 246 261 271 278 277 294 307 340 13 332 332 304 282 265 283 277 289 281 318 12 353
251 251 250 252 254 256 258 260 260 259 260 260 258 263 277 236 247 217 236 228 221 224 228 231 236 238 256 264 266 284 288 314 312 352 315 273 281 295 282 297 291 293 293 348 35
253 252 253 251 250 251 255 258 258 258 260 260 255 259 227 276 258 220 219 226 214 219 207 206 211 221 246 263 272 282 282 290 295 356 334 248 281 286 291 316 307 304 279 292 314
255 254 254 254 252 249 250 253 256 255 256 258 256 256 246 271 214 213 209 208 205 202 193 207 224 224 233 261 277 283 264 282 292 322 334 292 289 328 306 326 313 302 286 278 289
257 255 255 256 255 252 252 249 250 252 253 257 257 246 236 253 261 238 222 203 188 192 205 214 227 232 236 253 275 282 284 272 281 297 316 317 286 302 349 335 320 293 286 278 302
260 256 254 254 256 258 258 254 253 253 249 249 247 237 220 229 251 234 213 206 198 213 216 219 231 239 234 248 265 282 284 282 266 302 317 314 316 312 329 336 306 294 287 274 285
258 257 256 253 251 255 259 255 257 258 256 255 248 246 232 227 245 224 227 207 216 231 234 234 244 236 240 249 274 283 293 255 277 295 321 317 322 329 329 335 306 271 284 271 264
261 254 253 254 250 248 251 256 261 264 265 245 248 244 242 235 253 252 245 239 233 239 245 246 245 221 243 251 274 283 278 259 277 309 317 315 329 351 350 306 270 258 231 245 251
264 259 251 248 249 243 243 248 255 269 286 260 259 253 246 246 247 247 234 242 243 252 244 255 254 232 239 264 297 303 309 251 269 293 299 315 308 340 331 296 269 255 229 230 262
264 260 254 240 241 239 237 238 243 256 319 257 245 246 245 239 248 242 239 238 247 241 224 223 207 214 267 275 313 308 324 280 270 272 287 301 287 316 304 279 275 275 250 216 216
269 260 253 243 234 232 229 223 224 205 241 230 232 239 243 234 230 234 230 231 239 237 239 248 253 257 255 274 292 299 306 285 259 286 289 286 277 280 293 315 280 263 235 202 246
268 262 251 243 228 226 216 205 194 215 226 234 201 231 248 237 237 218 221 225 214 210 231 243 248 253 261 270 276 298 277 279 302 339 227 260 258 279 295 319 299 268 226 217 294
270 264 255 238 228 223 206 195 213 233 219 215 234 263 320 239 240 222 181 189 205 221 244 249 262 246 242 250 258 274 262 218 213 195 249 243 232 258 297 293 291 244 226 266 280
272 264 250 232 228 218 204 198 219 205 218 232 251 288 244 202 211 208 229 239 237 234 234 234 247 263 247 229 236 257 263 274 264 177 223 254 274 283 273 255 256 229 238 252 320
271 264 252 236 229 215 211 216 220 212 231 217 222 227 20 104 99 229 208 223 237 239 237 244 261 256 278 234 242 246 266 262 248 156 207 253 253 294 295 251 234 224 216 294 310
269 262 247 235 220 211 218 224 226 211 228 240 225 229 298 332 2 52 200 153 173 220 240 245 251 255 254 260 285 244 269 293 241 210 165 191 241 280 334 260 249 217 206 272 282
256 249 244 216 209 212 223 233 238 231 235 252 252 254 275 301 275 295 159 148 85 190 227 235 237 252 258 268 273 280 275 277 237 219 199 233 279 265 260 249 242 233 225 251 254
241 225 203 191 196 219 236 248 245 236 234 243 254 255 260 239 251 251 223 219 76 48 51 225 223 238 253 258 262 265 268 224 217 228 224 176 252 271 225 235 222 231 227 230 234
225 214 207 197 197 184 211 231 239 235 243 237 246 233 228 219 226 250 230 233 242 339 12 303 234 229 242 254 226 222 199 179 200 204 206 217 272 230 235 221 210 212 229 234 235
203 203 201 214 216 234 241 238 216 205 216 225 230 218 212 216 220 246 250 255 269 287 302 310 218 201 133 151 191 193 190 186 196 191 202 227 226 214 211 223 241 232 233 231 229
205 205 206 205 204 243 269 256 235 200 217 158 214 198 214 220 238 239 249 267 279 265 272 264 257 248 256 226 217 208 207 214 200 180 197 240 297 288 267 234 222 229 240 234 231
216 209 207 210 216 231 251 246 199 225 215 185 199 204 202 210 233 245 252 264 271 284 276 255 230 232 247 234 222 253 251 222 216 232 285 316 333 320 309 312 271 265 256 235 234
Height
3188 3188 3188 3188 3188 3187 3188 3188 3188 3189 3189 3190 3190 3190 3189 3190 3191 3193 3197 3200 3201 3201 3201 3200 3199 3198 3199 3198 3197 3196 3196 3195 3194 3194 3194 3192 3191 3189 3189 3188 3187 3187 3186 3187 3187
3188 3188 3188 3188 3187 3187 3187 3188 3188 3189 3189 3188 3189 3188 3188 3188 3188 3190 3194 3195 3198 3200 3201 3201 3199 3199 3199 3198 3197 3196 3196 3195 3194 3194 3191 3192 3192 3190 3190 3188 3188 3188 3188 3188 3186
3186 3187 3187 3187 3187 3186 3186 3187 3187 3188 3188 3188 3187 3187 3187 3186 3187 3186 3188 3192 3196 3197 3199 3200 3199 3199 3199 3198 3197 3195 3196 3195 3192 3192 3190 3189 3191 3189 3188 3187 3188 3188 3188 3189 3189
3184 3185 3186 3186 3186 3186 3185 3186 3186 3187 3187 3186 3186 3186 3186 3186 3188 3185 3186 3190 3193 3195 3197 3198 3198 3197 3199 3198 3197 3195 3195 3194 3191 3190 3189 3188 3188 3188 3186 3187 3186 3188 3188 3189 3189
3182 3183 3183 3184 3184 3184 3184 3184 3184 3185 3185 3184 3184 3185 3186 3186 3186 3186 3185 3187 3190 3192 3194 3195 3196 3196 3196 3197 3195 3194 3194 3193 3191 3189 3189 3187 3186 3186 3185 3186 3185 3187 3189 3188 3189
3179 3179 3180 3181 3181 3182 3182 3182 3182 3183 3183 3182 3182 3183 3184 3185 3185 3185 3186 3186 3188 3190 3191 3193 3194 3194 3194 3195 3195 3193 3193 3191 3190 3189 3188 3187 3187 3185 3185 3184 3184 3185 3187 3188 3188
3175 3176 3177 3178 3178 3179 3179 3180 3180 3181 3181 3180 3181 3181 3182 3183 3183 3184 3185 3185 3186 3187 3188 3190 3190 3192 3191 3193 3192 3192 3192 3191 3189 3188 3187 3186 3187 3184 3183 3182 3182 3182 3185 3185 3185
3171 3172 3172 3174 3174 3175 3176 3176 3177 3178 3178 3178 3179 3179 3180 3180 3181 3182 3182 3183 3185 3185 3186 3187 3187 3188 3190 3190 3191 3191 3191 3190 3188 3187 3186 3186 3186 3183 3183 3181 3179 3179 3182 3183 3184
3167 3167 3168 3169 3170 3171 3172 3173 3174 3174 3175 3176 3177 3178 3178 3178 3179 3178 3179 3180 3182 3183 3184 3184 3185 3186 3188 3188 3190 3190 3189 3188 3186 3185 3185 3186 3185 3183 3183 3179 3177 3177 3179 3182 3183
3162 3162 3164 3165 3166 3167 3168 3168 3169 3171 3172 3174 3174 3178 3177 3177 3177 3177 3178 3178 3179 3181 3182 3182 3183 3184 3185 3187 3187 3188 3187 3185 3183 3184 3183 3183 3181 3182 3180 3178 3176 3175 3177 3181 3182
3157 3158 3159 3160 3161 3163 3165 3165 3168 3168 3168 3170 3171 3172 3173 3174 3175 3176 3176 3177 3177 3178 3179 3180 3180 3181 3184 3185 3185 3185 3185 3182 3179 3180 3179 3178 3178 3177 3176 3177 3174 3174 3177 3180 3181
3152 3153 3154 3155 3157 3159 3159 3160 3161 3164 3163 3164 3166 3168 3170 3171 3172 3174 3175 3176 3176 3176 3177 3178 3176 3181 3182 3183 3183 3183 3182 3179 3177 3177 3177 3176 3175 3173 3173 3174 3174 3172 3176 3178 3178
3147 3148 3150 3151 3153 3155 3154 3156 3157 3158 3158 3160 3161 3163 3166 3167 3168 3171 3171 3172 3173 3173 3174 3174 3176 3178 3180 3181 3181 3180 3178 3177 3178 3175 3174 3174 3174 3172 3172 3170 3170 3169 3173 3175 3175
3141 3143 3144 3147 3151 3150 3151 3152 3153 3156 3156 3155 3156 3159 3160 3161 3161 3167 3167 3169 3169 3170 3171 3171 3172 3174 3177 3177 3178 3176 3175 3176 3175 3175 3174 3174 3174 3172 3170 3169 3170 3168 3170 3172 3170
3136 3138 3139 3142 3144 3146 3149 3149 3152 3155 3155 3152 3151 3149 3151 3155 3159 3159 3162 3164 3164 3166 3170 3169 3170 3172 3173 3174 3175 3173 3172 3173 3173 3173 3172 3171 3172 3171 3170 3168 3168 3167 3169 3170 3172
3131 3132 3134 3136 3139 3141 3144 3146 3151 3155 3148 3146 3146 3145 3147 3147 3150 3152 3155 3158 3160 3164 3165 3164 3167 3168 3169 3170 3171 3171 3170 3171 3171 3171 3171 3170 3170 3169 3168 3168 3167 3166 3168 3171 3171
3126 3127 3129 3131 3135 3136 3140 3144 3150 3146 3144 3144 3143 3142 3142 3143 3145 3147 3150 3151 3153 3158 3159 3160 3162 3164 3166 3166 3168 3168 3168 3169 3170 3171 3172 3169 3168 3167 3165 3165 3164 3164 3167 3171 3171
3121 3123 3124 3127 3128 3131 3136 3141 3141 3137 3139 3138 3139 3140 3140 3139 3141 3143 3146 3148 3151 3154 3155 3158 3159 3159 3161 3163 3165 3165 3166 3166 3170 3172 3167 3167 3164 3162 3164 3162 3161 3162 3167 3170 3170
3117 3118 3120 3121 3123 3127 3132 3134 3131 3134 3134 3135 3137 3138 3138 3137 3139 3141 3144 3146 3148 3150 3153 3153 3154 3155 3157 3159 3162 3162 3162 3163 3161 3163 3164 3163 3161 3162 3160 3159 3159 3161 3165 3167 3166
3113 3114 3115 3116 3119 3123 3127 3126 3127 3131 3132 3133 3135 3136 3136 3136 3137 3137 3139 3141 3142 3145 3147 3150 3152 3153 3155 3156 3157 3157 3159 3158 3157 3161 3162 3159 3159 3158 3156 3156 3157 3159 3162 3164 3164
3110 3110 3111 3112 3115 3118 3119 3121 3124 3129 3130 3132 3132 3133 3134 3135 3135 3135 3137 3139 3139 3140 3143 3146 3149 3149 3151 3152 3153 3154 3153 3153 3154 3154 3154 3159 3154 3155 3155 3155 3155 3158 3161 3162 3161
3106 3107 3107 3109 3113 3112 3114 3118 3122 3127 3127 3127 3129 3131 3133 3134 3134 3135 3136 3137 3137 3137 3138 3140 3142 3142 3145 3148 3149 3150 3149 3150 3151 3151 3151 3152 3152 3151 3152 3152 3154 3157 3159 3159 3160
3104 3105 3106 3107 3110 3112 3114 3116 3117 3119 3121 3122 3124 3128 3132 3133 3134 3133 3134 3135 3135 3136 3135 3136 3137 3138 3140 3144 3144 3145 3145 3145 3146 3146 3146 3149 3149 3149 3149 3149 3150 3152 3155 3156 3156
3103 3104 3105 3106 3109 3110 3112 3113 3113 3115 3116 3117 3119 3124 3128 3130 3131 3131 3132 3133 3134 3134 3135 3136 3135 3136 3136 3137 3139 3140 3141 3142 3143 3143 3144 3145 3146 3146 3147 3147 3148 3149 3151 3152 3154
3101 3102 3103 3104 3107 3109 3109 3109 3109 3112 3114 3114 3114 3118 3124 3127 3128 3129 3130 3131 3133 3134 3134 3136 3135 3135 3134 3135 3136 3137 3139 3140 3140 3141 3143 3144 3143 3143 3143 3144 3146 3147 3148 3149 3150
3098 3100 3102 3104 3106 3106 3105 3106 3107 3110 3110 3111 3112 3114 3119 3123 3125 3127 3128 3129 3131 3133 3134 3134 3134 3134 3134 3135 3134 3135 3136 3138 3140 3139 3140 3141 3141 3141 3141 3140 3140 3142 3143 3144 3146
3096 3098 3101 3103 3104 3105 3104 3106 3107 3108 3110 3110 3110 3113 3116 3120 3122 3124 3126 3128 3129 3131 3132 3132 3132 3132 3133 3132 3133 3135 3135 3135 3137 3138 3139 3139 3140 3139 3140 3138 3138 3139 3138 3139 3141